1508706000.39,2672,11.69,73164.0,-1.49,-2.47,-2.39,0,*64
1508706001.63,2673,11.69,73168.0,-1.49,-2.39,-2.47,0,*65
1508706002.87,2674,11.69,73166.3,-1.49,-2.47,-2.39,0,*62
1508706004.12,2675,11.69,73164.8,-1.47,-2.47,-2.35,0,*61
1508706005.36,2676,11.69,73166.3,-1.49,-2.51,-2.39,0,*67
1508706006.57,2677,11.69,73166.5,-1.49,-2.39,-2.35,0,*64
1508706007.78,2678,11.69,73168.3,-1.49,-2.35,-2.35,0,*67
1508706008.97,2679,11.69,73166.8,-1.51,-2.43,-2.31,0,*6A
1508706010.21,2680,11.69,73164.5,-1.49,-2.47,-2.39,0,*69
1508706011.43,2681,11.63,73166.5,-1.47,-2.39,-2.39,0,*6F
1508706012.64,2682,11.63,73162.5,-1.49,-2.39,-2.35,0,*6E
1508706013.85,2683,11.69,73166.3,-1.49,-2.39,-2.39,0,*63
1508706015.08,2684,11.69,73166.5,-1.49,-2.39,-2.47,0,*6D
1508706016.3,2685,11.69,73166.5,-1.47,-2.39,-2.35,0,*67
1508706017.54,2686,11.69,73164.8,-1.49,-2.47,-2.39,0,*6F
1508706018.78,2687,11.69,73170.0,-1.49,-2.39,-2.47,0,*6E
1508706020.02,2688,11.69,73164.5,-1.49,-2.47,-2.39,0,*61
1508706021.26,2689,11.69,73166.0,-1.49,-2.47,-2.39,0,*60
1508706022.53,2690,11.69,73166.3,-1.49,-2.51,-2.47,0,*66
1508706023.8,2691,11.63,73160.0,-1.49,-2.47,-2.47,0,*60
1508706025.04,2692,11.69,73164.8,-1.47,-2.39,-2.47,0,*64
1508706026.25,2693,11.69,73164.8,-1.49,-2.39,-2.39,0,*62
1508706027.47,2694,11.63,73164.3,-1.47,-2.39,-2.35,0,*67
1508706028.71,2695,11.69,73164.5,-1.49,-2.47,-2.39,0,*6D
1508706029.96,2696,11.69,73166.3,-1.47,-2.47,-2.39,0,*60
1508706031.19,2697,11.69,73168.5,-1.49,-2.39,-2.47,0,*6F
1508706032.43,2698,11.69,73164.0,-1.49,-2.39,-2.47,0,*60
1508706033.7,2699,11.69,73166.8,-1.49,-2.47,-2.47,0,*68
1508706034.92,2700,11.69,73166.5,-1.47,-2.39,-2.39,0,*67
1508706036.13,2701,11.69,73168.0,-1.47,-2.39,-2.39,0,*66
1508706037.34,2702,11.69,73166.0,-1.49,-2.39,-2.39,0,*6B
1508706038.58,2703,11.63,73166.5,-1.49,-2.47,-2.39,0,*63
1508706039.85,2704,11.69,73166.0,-1.49,-2.51,-2.47,0,*6A
1508706041.09,2705,11.69,73170.0,-1.49,-2.47,-2.39,0,*65
1508706042.34,2706,11.63,73166.5,-1.49,-2.47,-2.39,0,*66
1508706043.58,2707,11.63,73164.3,-1.47,-2.51,-2.39,0,*6E
1508706044.85,2708,11.69,73164.8,-1.49,-2.51,-2.51,0,*61
1508706046.12,2709,11.69,73164.3,-1.49,-2.51,-2.47,0,*67
1508706047.35,2710,11.69,73166.8,-1.49,-2.39,-2.47,0,*61
1508706048.6,2711,11.69,73164.0,-1.49,-2.47,-2.39,0,*60
1508706049.81,2712,11.69,73166.5,-1.47,-2.39,-2.39,0,*64
1508706051.02,2713,11.63,73164.5,-1.49,-2.39,-2.39,0,*6B
1508706052.26,2714,11.69,73164.0,-1.49,-2.47,-2.39,0,*65
1508706053.53,2715,11.69,73168.0,-1.49,-2.47,-2.47,0,*6D
1508706054.8,2716,11.69,73166.3,-1.49,-2.59,-2.47,0,*61
1508706056.04,2717,11.63,73162.8,-1.47,-2.51,-2.39,0,*6F
1508706057.31,2718,11.69,73166.3,-1.49,-2.51,-2.47,0,*67
1508706058.57,2719,11.63,73162.8,-1.49,-2.59,-2.47,0,*6E
1508706059.82,2720,11.63,73166.5,-1.47,-2.47,-2.39,0,*6C
1508706061.03,2721,11.69,73166.3,-1.49,-2.39,-2.39,0,*6A
1508706062.24,2722,11.63,73164.3,-1.49,-2.39,-2.39,0,*69
1508706063.45,2723,11.63,73166.3,-1.49,-2.35,-2.39,0,*64
1508706064.7,2724,11.69,73168.3,-1.47,-2.47,-2.39,0,*68
1508706065.91,2725,11.69,73164.8,-1.49,-2.39,-2.39,0,*6E
1508706067.15,2726,11.69,73166.0,-1.49,-2.47,-2.39,0,*64
1508706068.39,2727,11.69,73164.3,-1.49,-2.47,-2.39,0,*65
1508706069.6,2728,11.69,73164.3,-1.49,-2.39,-2.35,0,*6F
1508706070.81,2729,11.69,73166.3,-1.49,-2.39,-2.27,0,*6D
1508706072.05,2730,11.69,73166.3,-1.47,-2.47,-2.39,0,*6D
1508706073.33,2731,11.69,73168.0,-1.47,-2.47,-2.47,0,*65
1508706074.6,2732,11.69,73164.5,-1.49,-2.59,-2.51,0,*60
1508706075.86,2733,11.69,73166.0,-1.49,-2.51,-2.59,0,*61
1508706077.13,2734,11.69,73164.3,-1.47,-2.51,-2.59,0,*68
1508706078.39,2735,11.69,73164.5,-1.49,-2.59,-2.51,0,*67
1508706079.66,2736,11.69,73164.8,-1.49,-2.51,-2.47,0,*6B
1508706080.92,2737,11.69,73164.8,-1.49,-2.59,-2.59,0,*6D
1508706082.19,2738,11.69,73162.3,-1.49,-2.51,-2.47,0,*65
1508706083.45,2739,11.63,73164.3,-1.49,-2.51,-2.47,0,*64
1508706084.7,2740,11.69,73166.0,-1.49,-2.47,-2.39,0,*64
1508706085.94,2741,11.69,73166.3,-1.49,-2.47,-2.39,0,*65
1508706087.21,2742,11.63,73160.5,-1.49,-2.47,-2.47,0,*6F
1508706088.48,2743,11.69,73166.5,-1.49,-2.51,-2.51,0,*6E
1508706089.72,2744,11.69,73166.5,-1.49,-2.39,-2.47,0,*60
1508706090.96,2745,11.69,73164.5,-1.49,-2.47,-2.39,0,*61
1508706092.2,2746,11.69,73164.8,-1.49,-2.47,-2.39,0,*62
1508706093.41,2747,11.63,73160.8,-1.49,-2.39,-2.35,0,*66
1508706094.62,2748,11.63,73164.3,-1.49,-2.39,-2.27,0,*6A
1508706095.83,2749,11.69,73164.0,-1.47,-2.35,-2.35,0,*6A
1508706097.11,2750,11.69,73166.8,-1.47,-2.47,-2.47,0,*62
1508706098.35,2751,11.63,73162.5,-1.49,-2.47,-2.39,0,*64
1508706099.56,2752,11.63,73162.0,-1.49,-2.35,-2.35,0,*6E
1508706100.78,2753,11.69,73164.5,-1.47,-2.39,-2.39,0,*61
1508706102.02,2754,11.69,73166.8,-1.49,-2.47,-2.39,0,*61
1508706103.3,2755,11.69,73166.8,-1.47,-2.47,-2.47,0,*67
1508706104.57,2756,11.69,73164.8,-1.47,-2.59,-2.47,0,*6B
1508706105.83,2757,11.69,73166.0,-1.49,-2.51,-2.47,0,*6C
1508706107.11,2758,11.69,73164.0,-1.47,-2.47,-2.51,0,*6D
1508706108.38,2759,11.69,73164.3,-1.49,-2.51,-2.47,0,*62
1508706109.65,2760,11.63,73162.5,-1.49,-2.51,-2.51,0,*6F
1508706110.92,2761,11.69,73166.3,-1.47,-2.59,-2.51,0,*68
1508706112.19,2762,11.69,73166.3,-1.47,-2.47,-2.47,0,*63
1508706113.44,2763,11.69,73164.5,-1.49,-2.47,-2.39,0,*65
1508706114.69,2764,11.69,73164.3,-1.47,-2.47,-2.39,0,*6C
1508706115.92,2765,11.69,73168.5,-1.49,-2.51,-2.39,0,*64
1508706117.16,2766,11.69,73164.0,-1.49,-2.39,-2.47,0,*60
1508706118.38,2767,11.63,73160.0,-1.47,-2.39,-2.35,0,*6A
1508706119.65,2768,11.69,73164.8,-1.47,-2.47,-2.47,0,*69
1508706120.93,2769,11.63,73160.5,-1.47,-2.47,-2.47,0,*68
1508706122.2,2770,11.69,73166.0,-1.47,-2.51,-2.47,0,*67
1508706123.47,2771,11.69,73166.8,-1.49,-2.51,-2.47,0,*68
1508706124.71,2772,11.69,73166.0,-1.47,-2.51,-2.39,0,*6C
1508706125.96,2773,11.69,73166.0,-1.47,-2.51,-2.39,0,*6D
1508706127.2,2774,11.69,73168.0,-1.47,-2.47,-2.39,0,*6D
1508706128.44,2775,11.69,73164.8,-1.49,-2.39,-2.47,0,*62
1508706129.71,2776,11.63,73166.0,-1.49,-2.47,-2.47,0,*68
1508706130.98,2777,11.69,73164.3,-1.49,-2.47,-2.47,0,*69
1508706132.22,2778,11.69,73164.3,-1.49,-2.47,-2.39,0,*6F
1508706133.47,2779,11.69,73166.3,-1.47,-2.39,-2.47,0,*60
1508706134.68,2780,11.63,73162.0,-1.47,-2.39,-2.39,0,*6F
1508706135.93,2781,11.69,73166.5,-1.47,-2.47,-2.39,0,*67
1508706137.17,2782,11.69,73164.8,-1.49,-2.39,-2.47,0,*6A
1508706138.41,2783,11.69,73164.8,-1.47,-2.47,-2.39,0,*65
1508706139.62,2784,11.69,73166.5,-1.49,-2.39,-2.39,0,*65
1508706140.89,2785,11.69,73166.3,-1.49,-2.59,-2.47,0,*6B
1508706142.1,2786,11.63,73160.8,-1.47,-2.39,-2.39,0,*69
1508706143.37,2787,11.63,73160.5,-1.47,-2.51,-2.47,0,*6F
1508706144.65,2788,11.69,73166.3,-1.47,-2.47,-2.47,0,*67
1508706145.92,2789,11.63,73162.3,-1.47,-2.51,-2.51,0,*66
1508706147.2,2790,11.69,73162.8,-1.47,-2.51,-2.51,0,*6E
1508706148.47,2791,11.69,73166.8,-1.49,-2.51,-2.51,0,*61
1508706149.74,2792,11.69,73166.3,-1.47,-2.47,-2.47,0,*6C
1508706150.98,2793,11.69,73164.3,-1.49,-2.51,-2.39,0,*6D
1508706152.25,2794,11.63,73160.8,-1.49,-2.51,-2.47,0,*63
1508706153.52,2795,11.69,73166.0,-1.47,-2.51,-2.47,0,*6C
1508706154.78,2796,11.69,73164.0,-1.49,-2.59,-2.59,0,*66
1508706156.06,2797,11.69,73164.0,-1.47,-2.51,-2.51,0,*69
1508706157.32,2798,11.69,73164.8,-1.47,-2.59,-2.59,0,*66
1508706158.59,2799,11.69,73164.0,-1.47,-2.59,-2.51,0,*6F
1508706159.87,2800,11.63,73160.3,-1.49,-2.63,-2.51,0,*67
1508706161.14,2801,11.69,73164.5,-1.49,-2.51,-2.51,0,*67
1508706162.4,2802,11.63,73162.3,-1.49,-2.51,-2.47,0,*63
1508706163.67,2803,11.69,73166.5,-1.47,-2.59,-2.47,0,*64
1508706164.94,2804,11.69,73166.5,-1.49,-2.51,-2.47,0,*65
1508706166.21,2805,11.63,73162.3,-1.49,-2.51,-2.51,0,*63
1508706167.42,2806,11.69,73164.5,-1.49,-2.39,-2.39,0,*60
1508706168.68,2807,11.69,73166.0,-1.49,-2.59,-2.47,0,*6E
1508706169.94,2808,11.69,73164.0,-1.49,-2.59,-2.59,0,*6E
1508706171.21,2809,11.63,73160.8,-1.49,-2.59,-2.51,0,*67
1508706172.48,2810,11.63,73160.8,-1.47,-2.59,-2.51,0,*61
1508706173.75,2811,11.69,73166.0,-1.47,-2.51,-2.47,0,*6F
1508706175.02,2812,11.63,73162.5,-1.47,-2.51,-2.47,0,*6C
1508706176.26,2813,11.63,73160.3,-1.49,-2.51,-2.39,0,*6A
1508706177.48,2814,11.69,73162.8,-1.49,-2.35,-2.35,0,*63
1508706178.72,2815,11.63,73162.3,-1.49,-2.47,-2.39,0,*6B
1508706179.93,2816,11.69,73164.5,-1.49,-2.39,-2.39,0,*61
1508706181.17,2817,11.63,73162.8,-1.49,-2.47,-2.39,0,*69
1508706182.45,2818,11.63,73160.8,-1.47,-2.47,-2.47,0,*61
1508706183.65,2819,11.69,73162.0,-1.49,-2.39,-2.39,0,*6E
1508706184.86,2820,11.69,73164.3,-1.49,-2.39,-2.39,0,*64
1508706186.11,2821,11.63,73160.3,-1.49,-2.47,-2.39,0,*6C
1508706187.38,2822,11.69,73164.8,-1.47,-2.47,-2.47,0,*68
1508706188.62,2823,11.69,73166.0,-1.49,-2.51,-2.39,0,*69
1508706189.84,2824,11.69,73164.0,-1.47,-2.39,-2.39,0,*6E
1508706191.05,2825,11.63,73162.8,-1.49,-2.39,-2.39,0,*61
1508706192.32,2826,11.69,73164.5,-1.49,-2.47,-2.47,0,*62
1508706193.58,2827,11.69,73164.5,-1.49,-2.51,-2.47,0,*64
1508706194.85,2828,11.69,73162.0,-1.49,-2.51,-2.51,0,*6C
1508706196.12,2829,11.69,73166.3,-1.49,-2.47,-2.47,0,*6D
1508706197.39,2830,11.69,73166.0,-1.49,-2.59,-2.47,0,*6A
1508706198.63,2831,11.63,73162.5,-1.47,-2.51,-2.39,0,*64
1508706199.9,2832,11.69,73164.8,-1.49,-2.51,-2.47,0,*60
1508706201.17,2833,11.69,73162.3,-1.47,-2.47,-2.47,0,*68
1508706202.38,2834,11.69,73166.5,-1.49,-2.39,-2.39,0,*61
1508706203.63,2835,11.69,73164.0,-1.47,-2.47,-2.35,0,*6B
1508706204.91,2836,11.63,73160.5,-1.47,-2.47,-2.47,0,*6D
1508706206.16,2837,11.69,73164.8,-1.47,-2.47,-2.39,0,*65
1508706207.36,2838,11.69,73164.0,-1.49,-2.39,-2.39,0,*6D
1508706208.57,2839,11.63,73160.8,-1.49,-2.39,-2.39,0,*6C
1508706209.78,2840,11.69,73164.8,-1.49,-2.39,-2.39,0,*62
1508706211.0,2841,11.69,73166.8,-1.47,-2.39,-2.39,0,*6D
1508706212.24,2842,11.69,73164.0,-1.47,-2.51,-2.39,0,*60
1508706213.45,2843,11.69,73164.5,-1.49,-2.39,-2.39,0,*61
1508706214.66,2844,11.69,73164.0,-1.49,-2.39,-2.35,0,*6A
1508706215.9,2845,11.69,73164.5,-1.49,-2.47,-2.35,0,*62
1508706217.11,2846,11.63,73164.5,-1.49,-2.39,-2.35,0,*68
1508706218.33,2847,11.63,73160.5,-1.47,-2.39,-2.39,0,*6B
1508706219.54,2848,11.63,73160.8,-1.49,-2.35,-2.39,0,*66
1508706220.75,2849,11.69,73164.0,-1.47,-2.39,-2.27,0,*6A
1508706221.96,2850,11.63,73160.8,-1.47,-2.27,-2.27,0,*6D
1508706223.18,2851,11.69,73164.0,-1.47,-2.35,-2.27,0,*6F
1508706224.4,2852,11.63,73160.5,-1.47,-2.35,-2.35,0,*6F
1508706225.61,2853,11.69,73162.8,-1.47,-2.39,-2.35,0,*62
1508706226.86,2854,11.69,73164.8,-1.47,-2.47,-2.35,0,*6C
1508706228.07,2855,11.69,73164.3,-1.47,-2.39,-2.35,0,*64
1508706229.32,2856,11.69,73162.5,-1.47,-2.47,-2.35,0,*6E
1508706230.54,2857,11.69,73164.5,-1.47,-2.35,-2.35,0,*6A
1508706231.79,2858,11.69,73164.5,-1.47,-2.47,-2.39,0,*6C
1508706233.0,2859,11.69,73166.3,-1.47,-2.35,-2.39,0,*68
1508706234.22,2860,11.69,73164.8,-1.47,-2.35,-2.35,0,*6E
1508706235.44,2861,11.69,73164.8,-1.47,-2.35,-2.27,0,*6C
1508706236.65,2862,11.69,73164.0,-1.47,-2.35,-2.35,0,*6C
1508706237.87,2863,11.63,73160.5,-1.47,-2.27,-2.27,0,*6D
1508706239.08,2864,11.69,73162.5,-1.47,-2.27,-2.35,0,*69
1508706240.3,2865,11.69,73162.0,-1.47,-2.27,-2.27,0,*6B
1508706241.51,2866,11.69,73166.8,-1.47,-2.35,-2.27,0,*6B
1508706242.73,2867,11.69,73162.8,-1.47,-2.39,-2.35,0,*65
1508706243.92,2868,11.63,73160.5,-1.45,-2.43,-2.31,0,*61
1508706245.11,2869,11.63,73162.5,-1.45,-2.35,-2.35,0,*65
1508706246.31,2870,11.69,73162.3,-1.45,-2.43,-2.43,0,*6D
1508706247.53,2871,11.63,73162.8,-1.45,-2.47,-2.35,0,*69
1508706248.72,2872,11.63,73160.0,-1.45,-2.43,-2.43,0,*6F
1508706249.93,2873,11.63,73160.5,-1.43,-2.39,-2.39,0,*68
1508706251.13,2874,11.69,73162.8,-1.45,-2.43,-2.35,0,*68
1508706252.31,2875,11.69,73160.3,-1.45,-2.43,-2.43,0,*68
1508706253.59,2876,11.69,73164.0,-1.47,-2.47,-2.47,0,*69
1508706254.87,2877,11.63,73162.8,-1.47,-2.47,-2.47,0,*68
1508706256.09,2878,11.69,73162.0,-1.43,-2.31,-2.31,0,*63
1508706257.28,2879,11.69,73160.5,-1.45,-2.43,-2.43,0,*64
1508706258.5,2880,11.69,73162.3,-1.45,-2.47,-2.43,0,*66
1508706259.7,2881,11.63,73160.0,-1.45,-2.43,-2.31,0,*66
1508706260.89,2882,11.63,73162.0,-1.45,-2.35,-2.35,0,*60
1508706262.09,2883,11.63,73160.5,-1.45,-2.35,-2.23,0,*66
1508706263.28,2884,11.63,73162.0,-1.45,-2.35,-2.31,0,*62
1508706264.48,2885,11.69,73160.0,-1.45,-2.31,-2.31,0,*67
1508706265.67,2886,11.69,73162.5,-1.45,-2.35,-2.43,0,*65
1508706266.89,2887,11.69,73164.3,-1.45,-2.55,-2.43,0,*62
1508706268.14,2888,11.63,73162.8,-1.45,-2.55,-2.55,0,*6A
1508706269.38,2889,11.69,73162.3,-1.45,-2.59,-2.47,0,*64
1508706270.63,2890,11.69,73162.5,-1.45,-2.59,-2.55,0,*6F
1508706271.87,2891,11.63,73162.5,-1.45,-2.55,-2.47,0,*61
1508706273.1,2892,11.69,73162.8,-1.45,-2.47,-2.43,0,*65
1508706274.32,2893,11.69,73164.5,-1.45,-2.47,-2.43,0,*64
1508706275.56,2894,11.63,73160.5,-1.45,-2.55,-2.55,0,*67
1508706276.78,2895,11.69,73162.0,-1.45,-2.47,-2.43,0,*62
1508706277.98,2896,11.69,73162.5,-1.45,-2.35,-2.35,0,*65
1508706279.17,2897,11.69,73166.5,-1.45,-2.43,-2.35,0,*65
1508706280.36,2898,11.63,73160.8,-1.45,-2.35,-2.35,0,*6B
1508706281.56,2899,11.69,73162.8,-1.45,-2.35,-2.35,0,*6A
1508706282.76,2900,11.63,73160.8,-1.45,-2.35,-2.31,0,*6F
1508706283.95,2901,11.63,73160.8,-1.45,-2.43,-2.31,0,*6F
1508706285.15,2902,11.63,73162.0,-1.45,-2.35,-2.31,0,*6D
1508706286.34,2903,11.69,73160.5,-1.45,-2.43,-2.31,0,*6D
1508706287.57,2904,11.63,73160.0,-1.43,-2.31,-2.31,0,*69
1508706288.76,2905,11.69,73162.5,-1.45,-2.43,-2.39,0,*63
1508706289.98,2906,11.69,73162.5,-1.43,-2.31,-2.31,0,*6B
1508706291.2,2907,11.63,73158.0,-1.43,-2.39,-2.39,0,*6A
1508706292.45,2908,11.69,73160.3,-1.45,-2.47,-2.47,0,*63
1508706293.7,2909,11.69,73162.0,-1.45,-2.55,-2.47,0,*61
1508706294.94,2910,11.63,73160.0,-1.45,-2.55,-2.55,0,*6A
1508706296.19,2911,11.69,73164.5,-1.45,-2.63,-2.59,0,*62
1508706297.44,2912,11.63,73160.8,-1.45,-2.55,-2.55,0,*68
1508706298.68,2913,11.69,73162.0,-1.45,-2.59,-2.55,0,*65
1508706299.93,2914,11.63,73162.0,-1.45,-2.55,-2.47,0,*6D
1508706301.2,2915,11.63,73162.8,-1.47,-2.63,-2.59,0,*64
1508706302.47,2916,11.63,73162.5,-1.47,-2.51,-2.59,0,*66
1508706303.72,2917,11.69,73160.3,-1.45,-2.59,-2.47,0,*62
1508706304.99,2918,11.69,73162.3,-1.47,-2.59,-2.51,0,*68
1508706306.26,2919,11.69,73160.5,-1.47,-2.71,-2.59,0,*6B
1508706307.52,2920,11.63,73160.0,-1.49,-2.59,-2.63,0,*6C
1508706308.77,2921,11.63,73160.8,-1.45,-2.55,-2.55,0,*68
1508706310.04,2922,11.63,73162.3,-1.47,-2.59,-2.51,0,*61
1508706311.32,2923,11.69,73160.5,-1.47,-2.51,-2.51,0,*68
1508706312.59,2924,11.69,73162.8,-1.47,-2.51,-2.51,0,*6F
1508706313.86,2925,11.63,73162.3,-1.47,-2.63,-2.59,0,*67
1508706315.13,2926,11.69,73162.0,-1.47,-2.71,-2.59,0,*67
1508706316.4,2927,11.63,73162.8,-1.47,-2.59,-2.59,0,*6C
1508706317.67,2928,11.69,73162.3,-1.47,-2.63,-2.51,0,*62
1508706318.94,2929,11.63,73162.5,-1.47,-2.59,-2.59,0,*62
1508706320.22,2930,11.69,73160.5,-1.47,-2.63,-2.51,0,*6B
1508706321.48,2931,11.63,73162.3,-1.49,-2.59,-2.51,0,*6D
1508706322.76,2932,11.69,73162.0,-1.47,-2.51,-2.51,0,*68
1508706324.02,2933,11.63,73158.5,-1.49,-2.59,-2.51,0,*6F
1508706325.3,2934,11.63,73162.8,-1.47,-2.63,-2.59,0,*67
1508706326.57,2935,11.63,73160.8,-1.47,-2.51,-2.51,0,*6F
1508706327.85,2936,11.63,73162.3,-1.47,-2.47,-2.47,0,*6C
1508706329.12,2937,11.63,73162.0,-1.47,-2.51,-2.47,0,*6A
1508706330.39,2938,11.69,73160.0,-1.47,-2.59,-2.47,0,*6D
1508706331.66,2939,11.63,73160.0,-1.47,-2.59,-2.47,0,*6C
1508706332.93,2940,11.69,73162.3,-1.47,-2.59,-2.51,0,*65
1508706334.17,2941,11.63,73158.0,-1.47,-2.51,-2.39,0,*62
1508706335.44,2942,11.69,73160.3,-1.47,-2.59,-2.47,0,*60
1508706336.72,2943,11.69,73164.3,-1.47,-2.51,-2.47,0,*69
1508706337.99,2944,11.63,73162.0,-1.47,-2.47,-2.47,0,*69
1508706339.26,2945,11.69,73164.3,-1.47,-2.59,-2.51,0,*60
1508706340.53,2946,11.69,73160.0,-1.47,-2.59,-2.51,0,*63
1508706341.8,2947,11.63,73162.8,-1.49,-2.59,-2.51,0,*6C
1508706343.07,2948,11.63,73160.8,-1.49,-2.51,-2.47,0,*6C
1508706344.34,2949,11.63,73160.8,-1.49,-2.51,-2.51,0,*6A
1508706345.61,2950,11.69,73160.0,-1.47,-2.51,-2.47,0,*6B
1508706346.88,2951,11.69,73162.5,-1.47,-2.59,-2.51,0,*65
1508706348.15,2952,11.69,73160.5,-1.49,-2.59,-2.51,0,*68
1508706349.41,2953,11.63,73158.5,-1.49,-2.51,-2.47,0,*66
1508706350.69,2954,11.63,73160.5,-1.47,-2.47,-2.47,0,*68
1508706351.96,2955,11.63,73158.8,-1.49,-2.51,-2.47,0,*60
1508706353.23,2956,11.69,73160.3,-1.47,-2.51,-2.47,0,*6D
1508706354.51,2957,11.69,73160.3,-1.47,-2.47,-2.47,0,*6B
1508706355.75,2958,11.63,73160.3,-1.47,-2.39,-2.47,0,*6D
1508706357.02,2959,11.63,73158.3,-1.47,-2.59,-2.47,0,*6A
1508706358.29,2960,11.69,73160.0,-1.47,-2.51,-2.47,0,*68
1508706359.56,2961,11.69,73162.3,-1.49,-2.47,-2.47,0,*60
1508706360.77,2962,11.63,73158.0,-1.47,-2.39,-2.35,0,*61
1508706361.99,2963,11.63,73160.3,-1.47,-2.39,-2.35,0,*60
1508706363.26,2964,11.63,73160.0,-1.47,-2.59,-2.51,0,*63
1508706364.53,2965,11.69,73162.5,-1.49,-2.51,-2.51,0,*64
1508706365.79,2966,11.69,73160.3,-1.47,-2.59,-2.59,0,*69
1508706367.06,2967,11.63,73158.0,-1.47,-2.51,-2.59,0,*60
1508706368.27,2968,11.69,73162.5,-1.49,-2.39,-2.39,0,*69
1508706369.52,2969,11.63,73162.0,-1.47,-2.47,-2.39,0,*6F
1508706370.76,2970,11.69,73162.8,-1.47,-2.51,-2.39,0,*60
1508706372.03,2971,11.63,73160.8,-1.47,-2.59,-2.47,0,*60
1508706373.28,2972,11.69,73160.8,-1.47,-2.51,-2.39,0,*62
1508706374.55,2973,11.63,73160.8,-1.47,-2.47,-2.47,0,*6D
1508706375.83,2974,11.63,73162.3,-1.47,-2.47,-2.47,0,*6A
1508706377.04,2975,11.63,73162.0,-1.47,-2.39,-2.39,0,*6B
1508706378.24,2976,11.69,73162.3,-1.45,-2.43,-2.35,0,*6B
1508706379.43,2977,11.69,73162.5,-1.45,-2.35,-2.35,0,*6B
1508706380.62,2978,11.63,73160.3,-1.45,-2.43,-2.43,0,*64
1508706381.84,2979,11.69,73160.5,-1.45,-2.47,-2.35,0,*60
1508706383.12,2980,11.63,73162.3,-1.47,-2.47,-2.47,0,*61
1508706384.33,2981,11.63,73162.3,-1.47,-2.39,-2.39,0,*60
1508706385.61,2982,11.69,73160.3,-1.47,-2.47,-2.47,0,*63
1508706386.88,2983,11.63,73160.5,-1.47,-2.51,-2.47,0,*65
1508706388.16,2984,11.69,73162.5,-1.47,-2.51,-2.47,0,*62
1508706389.4,2985,11.69,73160.8,-1.47,-2.47,-2.39,0,*6D
1508706390.62,2986,11.63,73160.0,-1.47,-2.39,-2.39,0,*67
1508706391.82,2987,11.69,73160.3,-1.45,-2.35,-2.31,0,*60
1508706393.01,2988,11.69,73162.3,-1.45,-2.43,-2.35,0,*6A
1508706394.2,2989,11.69,73160.0,-1.45,-2.35,-2.43,0,*6B
1508706395.39,2990,11.69,73162.0,-1.45,-2.43,-2.43,0,*62
1508706396.58,2991,11.69,73162.0,-1.45,-2.43,-2.35,0,*62
1508706397.8,2992,11.69,73160.3,-1.45,-2.47,-2.35,0,*65
1508706399.0,2993,11.69,73160.0,-1.45,-2.35,-2.31,0,*65
1508706400.2,2994,11.69,73162.8,-1.45,-2.35,-2.31,0,*62
1508706401.42,2995,11.63,73160.8,-1.45,-2.47,-2.43,0,*63
1508706402.61,2996,11.69,73162.5,-1.45,-2.43,-2.35,0,*65
1508706403.8,2997,11.63,73162.0,-1.45,-2.43,-2.43,0,*65
1508706405.05,2998,11.69,73160.5,-1.43,-2.51,-2.39,0,*62
1508706406.26,2999,11.63,73158.3,-1.43,-2.43,-2.39,0,*60
1508706407.48,3000,11.63,73158.0,-1.45,-2.47,-2.43,0,*67
1508706408.7,3001,11.69,73160.0,-1.45,-2.47,-2.43,0,*66
1508706409.92,3002,11.69,73160.5,-1.45,-2.47,-2.43,0,*65
1508706411.14,3003,11.63,73160.0,-1.45,-2.47,-2.43,0,*64
1508706412.36,3004,11.63,73160.0,-1.43,-2.43,-2.31,0,*64
1508706413.58,3005,11.69,73158.5,-1.43,-2.39,-2.31,0,*68
1508706414.77,3006,11.69,73160.0,-1.45,-2.43,-2.43,0,*65
1508706415.98,3007,11.69,73160.0,-1.43,-2.39,-2.39,0,*62
1508706417.21,3008,11.69,73160.8,-1.45,-2.47,-2.43,0,*6F
1508706418.43,3009,11.63,73158.3,-1.43,-2.43,-2.31,0,*69
1508706419.62,3010,11.63,73160.0,-1.45,-2.43,-2.35,0,*63
1508706420.84,3011,11.63,73160.3,-1.43,-2.39,-2.31,0,*6D
1508706422.05,3012,11.63,73158.5,-1.43,-2.31,-2.27,0,*61
1508706423.3,3013,11.69,73160.3,-1.47,-2.47,-2.39,0,*6A
1508706424.52,3014,11.63,73158.0,-1.43,-2.31,-2.31,0,*60
1508706425.72,3015,11.69,73158.8,-1.45,-2.43,-2.35,0,*66
1508706426.93,3016,11.69,73162.5,-1.43,-2.31,-2.27,0,*65
1508706428.15,3017,11.69,73160.8,-1.45,-2.47,-2.43,0,*61
1508706429.37,3018,11.69,73160.5,-1.43,-2.31,-2.35,0,*68
1508706430.6,3019,11.69,73160.8,-1.45,-2.47,-2.43,0,*6F
1508706431.79,3020,11.69,73160.8,-1.45,-2.35,-2.31,0,*65
1508706433.01,3021,11.69,73158.5,-1.43,-2.39,-2.39,0,*66
1508706434.22,3022,11.69,73158.5,-1.43,-2.31,-2.27,0,*62
1508706435.45,3023,11.69,73158.5,-1.43,-2.31,-2.31,0,*64
1508706436.64,3024,11.63,73158.3,-1.45,-2.35,-2.43,0,*64
1508706437.86,3025,11.69,73162.5,-1.45,-2.47,-2.35,0,*61
1508706439.08,3026,11.63,73160.0,-1.43,-2.39,-2.39,0,*61
1508706440.29,3027,11.63,73156.3,-1.43,-2.43,-2.39,0,*6D
1508706441.51,3028,11.63,73158.0,-1.43,-2.39,-2.35,0,*63
1508706442.73,3029,11.69,73162.8,-1.43,-2.31,-2.31,0,*6E
1508706443.95,3030,11.63,73156.3,-1.43,-2.31,-2.27,0,*61
1508706445.16,3031,11.69,73160.8,-1.43,-2.39,-2.31,0,*6F
1508706446.35,3032,11.69,73160.8,-1.45,-2.43,-2.43,0,*62
1508706447.57,3033,11.69,73160.8,-1.43,-2.43,-2.31,0,*60
1508706448.79,3034,11.63,73158.0,-1.43,-2.43,-2.31,0,*67
1508706450.01,3035,11.63,73156.0,-1.43,-2.43,-2.39,0,*6E
1508706451.23,3036,11.69,73162.0,-1.43,-2.31,-2.31,0,*60
1508706452.46,3037,11.63,73158.8,-1.43,-2.31,-2.31,0,*61
1508706453.67,3038,11.63,73156.5,-1.43,-2.39,-2.39,0,*6E
1508706454.89,3039,11.63,73156.3,-1.43,-2.43,-2.31,0,*6A
1508706456.11,3040,11.63,73156.8,-1.43,-2.39,-2.31,0,*69
1508706457.3,3041,11.69,73158.8,-1.45,-2.43,-2.43,0,*66
1508706458.52,3042,11.63,73156.0,-1.43,-2.43,-2.31,0,*66
1508706459.77,3043,11.69,73160.0,-1.45,-2.55,-2.47,0,*67
1508706460.99,3044,11.63,73156.3,-1.43,-2.43,-2.31,0,*60
1508706462.2,3045,11.69,73160.0,-1.43,-2.43,-2.39,0,*69
1508706463.44,3046,11.63,73156.3,-1.43,-2.51,-2.39,0,*69
1508706464.66,3047,11.69,73160.3,-1.43,-2.43,-2.39,0,*6B
1508706465.88,3048,11.69,73160.5,-1.43,-2.31,-2.39,0,*61
1508706467.1,3049,11.69,73160.8,-1.45,-2.47,-2.43,0,*6A
1508706468.35,3050,11.69,73160.5,-1.43,-2.51,-2.39,0,*6E
1508706469.56,3051,11.63,73156.8,-1.43,-2.43,-2.39,0,*6C
1508706470.78,3052,11.63,73158.0,-1.43,-2.39,-2.39,0,*62
1508706471.99,3053,11.69,73162.5,-1.45,-2.51,-2.43,0,*66
1508706473.21,3054,11.69,73160.3,-1.45,-2.55,-2.43,0,*65
1508706474.46,3055,11.69,73162.0,-1.45,-2.47,-2.47,0,*63
1508706475.68,3056,11.69,73162.5,-1.43,-2.43,-2.43,0,*66
1508706476.89,3057,11.69,73162.5,-1.43,-2.43,-2.43,0,*67
1508706478.13,3058,11.63,73158.8,-1.43,-2.51,-2.39,0,*66
1508706479.35,3059,11.69,73158.5,-1.43,-2.39,-2.39,0,*69
1508706480.56,3060,11.69,73158.5,-1.43,-2.39,-2.39,0,*63
1508706481.76,3061,11.63,73158.3,-1.45,-2.43,-2.31,0,*61
1508706482.97,3062,11.63,73158.5,-1.43,-2.43,-2.39,0,*6C
1508706484.22,3063,11.63,73158.8,-1.43,-2.51,-2.39,0,*6E
1508706485.43,3064,11.69,73162.0,-1.43,-2.43,-2.39,0,*6A
1508706486.65,3065,11.63,73156.3,-1.43,-2.39,-2.27,0,*69
1508706487.87,3066,11.69,73160.0,-1.45,-2.47,-2.35,0,*66
1508706489.08,3067,11.63,73158.5,-1.43,-2.39,-2.39,0,*64
1508706490.3,3068,11.63,73156.5,-1.43,-2.43,-2.39,0,*66
1508706491.52,3069,11.63,73156.0,-1.43,-2.43,-2.39,0,*67
1508706492.73,3070,11.63,73158.8,-1.43,-2.39,-2.39,0,*62
1508706493.95,3071,11.69,73162.3,-1.43,-2.43,-2.31,0,*66
1508706495.16,3072,11.69,73162.8,-1.43,-2.39,-2.39,0,*60
1508706496.38,3073,11.63,73158.8,-1.43,-2.39,-2.31,0,*69
1508706497.63,3074,11.69,73160.0,-1.43,-2.51,-2.31,0,*60
1508706498.85,3075,11.69,73160.5,-1.43,-2.39,-2.31,0,*6F
1508706500.06,3076,11.69,73162.5,-1.43,-2.39,-2.31,0,*6C
1508706501.26,3077,11.63,73158.0,-1.45,-2.35,-2.31,0,*67
1508706502.47,3078,11.69,73158.3,-1.43,-2.39,-2.27,0,*65
1508706503.67,3079,11.63,73158.5,-1.45,-2.43,-2.31,0,*68
1508706504.86,3080,11.63,73158.8,-1.41,-2.31,-2.19,0,*65
1508706506.07,3081,11.63,73158.3,-1.43,-2.39,-2.31,0,*64
1508706507.29,3082,11.63,73156.8,-1.43,-2.39,-2.31,0,*67
1508706508.52,3083,11.63,73158.0,-1.43,-2.31,-2.31,0,*6E
1508706509.74,3084,11.63,73158.5,-1.43,-2.31,-2.31,0,*69
1508706510.96,3085,11.69,73160.3,-1.43,-2.31,-2.31,0,*68
1508706512.18,3086,11.69,73158.5,-1.45,-2.43,-2.47,0,*69
1508706513.4,3087,11.63,73156.5,-1.43,-2.39,-2.39,0,*6A
1508706514.61,3088,11.69,73160.5,-1.43,-2.39,-2.43,0,*68
1508706515.85,3089,11.63,73156.0,-1.43,-2.51,-2.39,0,*6A
1508706517.07,3090,11.63,73156.5,-1.43,-2.43,-2.43,0,*6C
1508706518.28,3091,11.69,73156.8,-1.43,-2.43,-2.43,0,*6D
1508706519.5,3092,11.69,73160.0,-1.43,-2.43,-2.39,0,*63